Home   Weather   Les Paris   Past weeks
Flag for France

Past Weather in Les Paris, Savoie, France — Yesterday and Last 2 Weeks

Now
37 °F

Clear.


Feels Like: 30 °F
Forecast: 46 / 28 °F
Wind: 10 mph from Northeast

Location: Chambery / Aix-Les-Bains

Current Time: Jan 21, 2020 at 1:33:17 am

Latest Report: Jan 21, 2020 at 12:30 am


Visibility: 10 mi

Pressure: 30.69 "Hg

Humidity: 60%

Dew Point: 25 °F

Location of Les ParisLocation

Past Weather in Les Paris — Graph

°F

Les Paris Temperature Yesterday

Maximum temperature yesterday: 45 °F (at 2:30 pm)
Minimum temperature yesterday: 34 °F (at 6:30 am)
Average temperature yesterday: 38 °F

High & Low Weather Summary for the Past Weeks

 TemperatureHumidityPressure
High55 °F (Jan 14, 2:30 pm)100% (Jan 6, 9:00 am)30.69 "Hg (Jan 6, 9:00 am)
Low25 °F (Jan 6, 6:30 am)38% (Jan 14, 2:30 pm)30.12 "Hg (Jan 14, 4:00 am)
Average37 °F80%30.36 "Hg
* Reported Jan 6 12:00 am — Jan 21 12:30 am, Les Paris. Weather by CustomWeather, © 2020

Note: Actual official high and low records may vary slightly from our data, if they occured in-between our weather recording intervals... More about our weather records

Les Paris Weather History for the Previous 24 Hours

Scroll right to see more
 ConditionsComfort  
Time TempWeatherWind HumidityBarometerVisibility
12:30 am
Tue, Jan 21
37 °FClear.10 mph60%30.69 "Hg10 mi
12:00 am37 °FClear.12 mph60%30.69 "Hg10 mi
11:30 pm
Mon, Jan 20
37 °FClear.10 mph60%30.69 "Hg10 mi
11:00 pm37 °FClear.13 mph60%30.66 "Hg10 mi
10:30 pm37 °FClear.12 mph60%30.66 "Hg10 mi
10:00 pm37 °FClear.13 mph60%30.66 "Hg10 mi
9:30 pm37 °FClear.13 mph60%30.66 "Hg10 mi
9:00 pm37 °FClear.13 mph60%30.66 "Hg10 mi
8:30 pm37 °FClear.14 mph60%30.66 "Hg10 mi
8:00 pm39 °FClear.15 mph56%30.66 "Hg10 mi
7:30 pm39 °FClear.13 mph56%30.66 "Hg10 mi
7:00 pm39 °FClear.15 mph56%30.63 "Hg10 mi
6:30 pm39 °FClear.15 mph56%30.63 "Hg10 mi
6:00 pm41 °FClear.16 mph53%30.63 "Hg10 mi
5:30 pm41 °FClear.15 mph53%30.63 "Hg10 mi
5:00 pm41 °FSunny.15 mph53%30.63 "Hg10 mi
4:30 pm41 °FSunny.15 mph53%30.63 "Hg10 mi
4:00 pm43 °FSunny.14 mph49%30.63 "Hg10 mi
3:30 pm43 °FSunny.14 mph53%30.63 "Hg10 mi
3:00 pm45 °FSunny.12 mph49%30.63 "Hg10 mi
2:30 pm45 °FPassing clouds.12 mph49%30.63 "HgN/A
2:00 pm43 °FPassing clouds.14 mph53%30.63 "HgN/A
1:30 pm43 °FSunny.17 mph53%30.63 "Hg10 mi
1:00 pm41 °FSunny.15 mph57%30.63 "Hg10 mi
12:30 pm41 °FSunny.13 mph57%30.66 "Hg10 mi
12:00 pm39 °FSunny.12 mph61%30.66 "Hg10 mi
11:30 am39 °FPassing clouds.13 mph56%30.66 "HgN/A
11:00 am37 °FPassing clouds.12 mph60%30.66 "HgN/A
10:30 am36 °FSunny.15 mph65%30.66 "Hg10 mi
10:00 am36 °FSunny.14 mph70%30.66 "Hg10 mi
9:30 am36 °FPassing clouds.12 mph65%30.66 "HgN/A
9:00 am34 °FPassing clouds.14 mph70%30.66 "HgN/A
8:30 am34 °FPassing clouds.14 mph70%30.63 "HgN/A
8:00 am34 °FPassing clouds.14 mph70%30.63 "HgN/A
7:30 am36 °FPassing clouds.14 mph65%30.63 "HgN/A
7:00 am36 °FPassing clouds.14 mph65%30.60 "HgN/A
6:30 am34 °FPassing clouds.13 mph70%30.60 "HgN/A
6:00 am36 °FPassing clouds.13 mph70%30.60 "HgN/A
5:30 am36 °FClear.13 mph70%30.60 "Hg10 mi
5:00 am36 °FClear.14 mph70%30.60 "Hg10 mi
4:30 am36 °FClear.16 mph70%30.60 "Hg10 mi
4:00 am36 °FClear.18 mph70%30.60 "Hg10 mi
3:30 am36 °FPassing clouds.16 mph70%30.60 "HgN/A
3:00 am36 °FPassing clouds.16 mph70%30.60 "HgN/A
2:30 am36 °FPassing clouds.15 mph70%30.57 "HgN/A
2:00 am36 °FPassing clouds.16 mph75%30.57 "HgN/A
1:30 am36 °FPassing clouds.15 mph70%30.57 "HgN/A
1:00 am36 °FPassing clouds.14 mph75%30.57 "HgN/A
Weather by CustomWeather, © 2020

See weather overview

Advertising